Zurück zum Katalog

STARLINK-5264

AktivKommunikationVLEO
NORAD 54206·PAYLOAD·🇺🇸 United States

Gestartet Oct 28, 2022 von Vandenberg Space Force Base

Loading…

Nächste Überflüge (nächste 24 Stunden)

TLE

AktuellSource: CelesTrak SupGP

Epoche: Sep 15, 2026, 01:36 UTC

1 54206C 22141BB  26258.06715278 -.00013357  00000+0 -38225-3 0  2587
2 54206  53.1587 179.3915 0001371  85.2882 355.4246 15.35397073    11

Verfolge STARLINK-5264 in Echtzeit mit AllMySat

Download on the App Store